Home   Weather   Rancagua   Past weeks

Flag for Chile Past Weather in Rancagua, Chile — Yesterday and Last 2 Weeks

Now
43 °F

Quite cool.


Feels Like: 43 °F
Forecast: 52 / 83 °F
Wind: No wind

Location: Pudahuel

Current Time: Sep 27, 2016 at 9:08:54 AM

Latest Report: Sep 27, 2016 at 8:00 AM


Visibility: 2 mi

Pressure: 29.98 "Hg (28.16 "Hg at 511m altitude)

Humidity: 100%

Dew Point: 43 °F

Location of RancaguaLocation

Past Weather in Rancagua — Graph

°F

Rancagua Temperature Yesterday

Maximum temperature yesterday: 81 °F (at 4:00 PM)
Minimum temperature yesterday: 43 °F (at 9:00 AM)
Average temperature yesterday: 59 °F

High & Low Weather Summary for the Past Weeks

 TemperatureHumidityPressure
High88 °F (Sep 19, 4:00 PM)100% (Sep 15, 8:00 AM)30.24 "Hg (Sep 15, 8:00 AM)
Low37 °F (Sep 13, 8:00 AM)11% (Sep 19, 5:00 PM)29.89 "Hg (Sep 19, 4:00 PM)
Average59 °F64%30.03 "Hg
* Reported Sep 12 8:00 AM — Sep 27 8:00 AM, Rancagua, Weather by CustomWeather, © 2016

Note: Actual official high and low records may vary slightly from our data, if they occured in-between our weather recording intervals... More about our weather records

Advertising

Rancagua Weather History for the Previous 24 Hours

Scroll right to see more
 ConditionsComfort  
Time TempWeatherWind HumidityBarometerVisibility
8:00 AM
Tue, Sep 27
43 °FQuite cool.No wind100%29.98 "Hg2 mi
7:00 AM46 °FCool.No wind93%29.95 "Hg1 mi
6:00 AM46 °FFog.5 mph100%29.95 "Hg0 mi
5:00 AM46 °FRain. Overcast.1 mph93%29.95 "Hg4 mi
4:00 AM50 °FRain. Fog.6 mph88%29.95 "Hg4 mi
3:00 AM50 °FClear.5 mph88%29.95 "Hg10 mi
2:00 AM54 °FClear.5 mph82%29.95 "Hg10 mi
1:00 AM55 °FClear.2 mph77%29.98 "Hg10 mi
12:00 AM57 °FClear.7 mph72%29.98 "Hg10 mi
11:00 PM
Mon, Sep 26
61 °FClear.5 mph68%29.98 "Hg10 mi
10:00 PM63 °FClear.10 mph64%29.95 "Hg10 mi
9:00 PM66 °FClear.8 mph52%29.95 "Hg10 mi
8:00 PM70 °FClear.8 mph40%29.92 "Hg10 mi
7:00 PM75 °FSunny.10 mph31%29.89 "Hg10 mi
6:00 PM77 °FSunny.14 mph32%29.89 "Hg10 mi
5:00 PM79 °FSunny.15 mph32%29.89 "Hg10 mi
4:00 PM81 °FSunny.15 mph30%29.89 "Hg10 mi
3:00 PM77 °FPassing clouds.9 mph32%29.89 "HgN/A
2:00 PM73 °FPassing clouds.6 mph38%29.95 "HgN/A
1:00 PM68 °FPassing clouds.7 mph49%29.98 "HgN/A
12:00 PM63 °FClear.9 mph64%30.01 "Hg4 mi
11:00 AM57 °FHaze.2 mph72%30.01 "Hg3 mi
10:00 AM48 °FFog.2 mph94%30.01 "Hg2 mi
9:00 AM43 °FFog.2 mph100%30.01 "Hg0 mi
Weather by CustomWeather, © 2016

See weather overviewHow to use our weather pages